TimeCDT,TemperatureF,Dew PointF,Humidity,Sea Level PressureIn,VisibilityMPH,Wind Direction,Wind SpeedMPH,Gust SpeedMPH,PrecipitationIn,Events,Conditions,WindDirDegrees,DateUTC
12:52 AM,59.0,53.1,81,29.55,10.0,Calm,Calm,-,N/A,,Scattered Clouds,0,2014-04-29 05:52:00
1:52 AM,55.0,52.0,89,29.55,10.0,SSE,3.5,-,N/A,,Clear,150,2014-04-29 06:52:00
2:52 AM,54.0,50.0,86,29.54,10.0,Calm,Calm,-,N/A,,Clear,0,2014-04-29 07:52:00
3:52 AM,52.0,46.0,80,29.53,10.0,South,8.1,-,N/A,,Clear,180,2014-04-29 08:52:00
4:52 AM,53.1,46.9,80,29.53,10.0,South,10.4,-,N/A,,Clear,190,2014-04-29 09:52:00
5:52 AM,52.0,45.0,77,29.53,10.0,South,8.1,-,N/A,,Clear,180,2014-04-29 10:52:00
6:52 AM,53.1,45.0,74,29.56,10.0,South,6.9,-,N/A,,Clear,170,2014-04-29 11:52:00
8:52 AM,61.0,42.1,50,29.58,10.0,SW,18.4,-,N/A,,Clear,230,2014-04-29 13:52:00
10:52 AM,63.0,44.1,50,29.60,10.0,SSW,19.6,26.5,N/A,,Clear,200,2014-04-29 15:52:00
11:52 AM,61.0,44.1,54,29.61,10.0,SSW,20.7,26.5,N/A,,Overcast,200,2014-04-29 16:52:00
12:52 PM,61.0,45.0,56,29.63,10.0,South,21.9,31.1,0.00,Rain,Light Rain,190,2014-04-29 17:52:00
1:52 PM,61.0,44.1,54,29.62,10.0,South,20.7,32.2,0.00,,Mostly Cloudy,170,2014-04-29 18:52:00
2:52 PM,62.1,46.9,58,29.63,10.0,South,21.9,36.8,N/A,,Clear,180,2014-04-29 19:52:00
3:52 PM,63.0,46.9,56,29.63,10.0,South,23.0,34.5,N/A,,Clear,190,2014-04-29 20:52:00
4:52 PM,64.9,46.9,52,29.63,10.0,SSW,18.4,26.5,N/A,,Clear,200,2014-04-29 21:52:00
5:52 PM,64.9,46.0,50,29.63,10.0,South,16.1,-,N/A,,Clear,190,2014-04-29 22:52:00
6:52 PM,63.0,45.0,52,29.65,10.0,SW,17.3,20.7,N/A,,Overcast,230,2014-04-29 23:52:00
7:42 PM,59.0,45.0,60,29.68,10.0,NW,15.0,19.6,N/A,,Overcast,310,2014-04-30 00:42:00
7:52 PM,57.0,46.0,67,29.69,10.0,NW,5.8,-,N/A,,Mostly Cloudy,320,2014-04-30 00:52:00
8:52 PM,57.0,45.0,64,29.72,10.0,Calm,Calm,-,N/A,,Mostly Cloudy,0,2014-04-30 01:52:00
9:52 PM,55.9,45.0,67,29.75,10.0,WNW,5.8,-,N/A,,Overcast,300,2014-04-30 02:52:00
10:52 PM,55.0,43.0,64,29.77,10.0,WNW,5.8,-,N/A,,Overcast,300,2014-04-30 03:52:00
11:52 PM,52.0,41.0,66,29.78,10.0,West,6.9,-,N/A,,Clear,270,2014-04-30 04:52:00